sat.trackr.live / text

‹ back to catalog

STARLINK-37310

NORAD 68679 · 2026-077T

PAYLOAD ACTIVE UNKNOWN

§ Identity

Operator
Country
US
Launch date
2026-04-11
Launch site
AFWTR
Launch vehicle
Mass (kg)
RCS (m²)

Purposes: comms

External: N2YO · Heavens-Above · Gunter

§ Orbital elements

Epoch: 2026-05-25T02:49:51.845952Z

Period
93.91 min
Inclination
97.2850°
Eccentricity
0.0001466
Mean motion
15.33462983 rev/d
Perigee alt
464.5 km
Apogee alt
466.5 km
Semi-major
6,843.6 km
B*
5.7933e-4
RAAN
16.7358°
Arg perigee
92.9670°
Mean anomaly
267.1741°
Rev number
687

§ Raw data

STARLINK-373101 68679U 26077T   26145.11796118  .00018685  00000+0  57933-3 0  99972 68679  97.2850  16.7358 0001466  92.9670 267.1741 15.33462983  6872

JSON: /api/v1/satellites/68679 · /tle

For live sub-satellite position, see the globe view (requires WebGL).

§ Visibility from observer

Set your observer location to see the next 7 days of passes ≥ 10°. The values pass through the URL so the page stays shareable.

No JS? Fill the form by hand. The geolocation button needs JavaScript.